Cozumel (Civ/Mil, Mexico

10:56 AM on February 23, 2017 (GMT +0000)
Cozumel International

Weather History for MMCZ - October, 2010

Change the Weather History Date:

Wednesday, October 20, 2010

  Actual Average Record
Temperature  
Mean Temperature 78 °F -  
Max Temperature 82 °F 86 °F 91 °F (2006)
Min Temperature 73 °F 75 °F 64 °F (2013)
Cooling Degree Days 12    
Growing Degree Days 28 (Base 50)    
Moisture  
Dew Point 69 °F    
Average Humidity 78    
Maximum Humidity 94    
Minimum Humidity 58    
Precipitation  
Precipitation 0.00 in - - ()
Sea Level Pressure  
Sea Level Pressure 29.93 in    
Wind  
Wind Speed 8 mph ()    
Max Wind Speed 14 mph    
Max Gust Speed -    
Visibility 7.5 miles    
Events      
Averages and records for this station are not official NWS values.
T = Trace of Precipitation, MM = Missing Value Source: Averaged Metar Reports

Daily Weather History Graph

Daily Weather History Graph

Search for Another Location

Airport or City:

Trip Planner

Search our weather history database for the weather conditions in past years. The results will help you decide how hot, cold, wet, or windy it might be!

Date:

Astronomy

Oct. 20, 2010 Rise Set
Actual Time 6:44 AM CDT 6:20 PM CDT
Civil Twilight 6:22 AM CDT 6:42 PM CDT
Nautical Twilight 5:56 AM CDT 7:08 PM CDT
Astronomical Twilight 5:30 AM CDT 7:34 PM CDT
Moon 4:45 PM CDT (10/20) 4:38 AM CDT (10/20)
Length of Visible Light 12h 20m
Length of Day
11h 35m
Waxing Gibbous, 95% of the Moon is Illuminated
Oct 20
Waxing Gibbous
Oct 22
Full
Oct 30
Last Quarter
Nov 5
New
Nov 13
First Quarter

Hourly Weather History & Observations

Time (CDT) Temp. Heat Index Dew Point Humidity Pressure Visibility Wind Dir Wind Speed Gust Speed Precip Events Conditions
12:44 AM 73.4 °F - 71.6 °F 94% 29.91 in 7.0 mi North 8.1 mph - N/A   Scattered Clouds
1:40 AM 73.4 °F - 69.8 °F 88% 29.92 in 7.0 mi North 8.1 mph - N/A   Scattered Clouds
2:40 AM 73.4 °F - 69.8 °F 88% 29.91 in 7.0 mi North 5.8 mph - N/A   Scattered Clouds
3:41 AM 73.4 °F - 69.8 °F 88% 29.91 in 7.0 mi North 6.9 mph - N/A   Scattered Clouds
4:44 AM 73.4 °F - 69.8 °F 88% 29.90 in 7.0 mi North 4.6 mph - N/A   Scattered Clouds
5:42 AM 73.4 °F - 69.8 °F 88% 29.91 in 7.0 mi North 8.1 mph - N/A   Scattered Clouds
6:40 AM 73.4 °F - 69.8 °F 88% 29.90 in 7.0 mi North 8.1 mph - N/A   Scattered Clouds
7:44 AM 75.2 °F - 69.8 °F 83% 29.94 in 8.0 mi North 10.4 mph - N/A   Mostly Cloudy
8:45 AM 75.2 °F - 69.8 °F 83% 29.96 in 8.0 mi North 11.5 mph - N/A   Mostly Cloudy
9:45 AM 78.8 °F - 69.8 °F 74% 29.99 in 8.0 mi North 9.2 mph - N/A   Mostly Cloudy
10:42 AM 78.8 °F - 69.8 °F 74% 29.98 in 8.0 mi North 9.2 mph - N/A   Scattered Clouds
11:42 AM 80.6 °F 83.2 °F 68.0 °F 65% 29.97 in 8.0 mi NNW 10.4 mph - N/A   Scattered Clouds
12:43 PM 80.6 °F 83.2 °F 68.0 °F 65% 29.91 in 8.0 mi North 8.1 mph - N/A   Partly Cloudy
1:44 PM 82.4 °F 84.6 °F 66.2 °F 58% 29.92 in 8.0 mi North 5.8 mph - N/A   Partly Cloudy
2:40 PM 82.4 °F 86.3 °F 69.8 °F 66% 29.90 in 8.0 mi NE 8.1 mph - N/A   Partly Cloudy
3:40 PM 82.4 °F 86.3 °F 69.8 °F 66% 29.93 in 8.0 mi NNE 10.4 mph - N/A   Partly Cloudy
4:40 PM 80.6 °F 83.9 °F 69.8 °F 70% 29.90 in 8.0 mi NE 11.5 mph - N/A   Scattered Clouds
5:42 PM 78.8 °F - 66.2 °F 65% 29.91 in 8.0 mi North 10.4 mph - N/A   Scattered Clouds
6:45 PM 77.0 °F - 66.2 °F 69% 29.89 in 7.0 mi North 9.2 mph - N/A   Partly Cloudy
7:40 PM 75.2 °F - 68.0 °F 78% 29.95 in 7.0 mi North 10.4 mph - N/A   Partly Cloudy
8:40 PM 75.2 °F - 68.0 °F 78% 29.97 in 7.0 mi North 9.2 mph - N/A   Partly Cloudy
9:46 PM 73.4 °F - 69.8 °F 88% 30.00 in 7.0 mi North 8.1 mph - N/A   Clear
10:44 PM 73.4 °F - 69.8 °F 88% 29.98 in 7.0 mi North 11.5 mph - N/A   Clear
11:43 PM 73.4 °F - 68.0 °F 83% 29.98 in 7.0 mi North 13.8 mph - N/A   Clear